TimeEST,TemperatureF,Dew PointF,Humidity,Sea Level PressureIn,VisibilityMPH,Wind Direction,Wind SpeedMPH,Gust SpeedMPH,PrecipitationIn,Events,Conditions,WindDirDegrees,DateUTC
12:53 AM,75.0,73.0,94,29.93,10.0,South,9.2,-,N/A,,Scattered Clouds,190,2012-12-11 05:53:00
1:53 AM,75.0,72.0,90,29.92,10.0,SSW,6.9,-,0.00,Rain,Light Rain,210,2012-12-11 06:53:00
2:24 AM,75.2,71.6,89,29.94,10.0,SW,6.9,-,0.00,,Overcast,230,2012-12-11 07:24:00
2:31 AM,75.2,71.6,89,29.94,10.0,SW,5.8,-,0.00,,Overcast,230,2012-12-11 07:31:00
2:53 AM,73.9,72.0,93,29.93,10.0,SW,5.8,-,0.00,,Overcast,220,2012-12-11 07:53:00
3:00 AM,73.4,71.6,94,29.93,1.8,WSW,5.8,-,0.02,Rain,Heavy Rain,240,2012-12-11 08:00:00
3:11 AM,73.4,71.6,94,29.93,3.0,West,6.9,-,0.18,Rain,Light Rain,260,2012-12-11 08:11:00
3:18 AM,73.4,71.6,94,29.93,9.0,West,5.8,-,0.18,Rain-Thunderstorm,Light Rain,260,2012-12-11 08:18:00
3:33 AM,75.2,73.4,94,29.92,10.0,SW,5.8,-,0.18,,Overcast,220,2012-12-11 08:33:00
3:46 AM,75.2,73.4,94,29.92,10.0,SSW,8.1,-,0.18,,Mostly Cloudy,210,2012-12-11 08:46:00
3:53 AM,75.0,73.0,94,29.93,10.0,SSW,9.2,-,0.18,,Mostly Cloudy,210,2012-12-11 08:53:00
4:24 AM,75.2,71.6,89,29.92,10.0,SW,10.4,-,N/A,,Mostly Cloudy,220,2012-12-11 09:24:00
4:34 AM,75.2,71.6,89,29.93,10.0,SW,10.4,-,N/A,,Mostly Cloudy,230,2012-12-11 09:34:00
4:43 AM,73.4,71.6,94,29.91,10.0,SW,9.2,-,N/A,,Scattered Clouds,220,2012-12-11 09:43:00
4:53 AM,73.9,72.0,93,29.92,10.0,SSW,9.2,-,N/A,,Partly Cloudy,210,2012-12-11 09:53:00
5:53 AM,73.0,71.1,93,29.93,10.0,SW,6.9,-,N/A,,Clear,220,2012-12-11 10:53:00
6:53 AM,73.0,71.1,93,29.93,10.0,SSW,6.9,-,N/A,,Clear,200,2012-12-11 11:53:00
7:53 AM,73.0,70.0,90,29.96,10.0,SSW,5.8,-,N/A,,Clear,200,2012-12-11 12:53:00
8:53 AM,73.0,71.1,93,29.98,10.0,SSW,5.8,-,N/A,,Clear,200,2012-12-11 13:53:00
9:53 AM,75.9,71.1,85,29.99,10.0,SSW,6.9,-,N/A,,Clear,200,2012-12-11 14:53:00
10:53 AM,75.9,71.1,85,30.02,10.0,SW,5.8,-,N/A,,Clear,230,2012-12-11 15:53:00
11:53 AM,75.9,71.1,85,30.01,10.0,SW,5.8,-,N/A,,Clear,220,2012-12-11 16:53:00
12:53 PM,77.0,72.0,84,29.96,10.0,SSW,4.6,-,N/A,,Clear,200,2012-12-11 17:53:00
1:53 PM,78.1,72.0,81,29.96,10.0,South,9.2,-,N/A,,Mostly Cloudy,180,2012-12-11 18:53:00
2:06 PM,71.6,66.2,83,29.97,10.0,SW,8.1,-,N/A,,Scattered Clouds,220,2012-12-11 19:06:00
2:41 PM,78.8,71.6,78,29.97,10.0,SSW,9.2,-,N/A,,Mostly Cloudy,200,2012-12-11 19:41:00
2:53 PM,79.0,73.0,82,29.96,10.0,SW,10.4,-,N/A,,Mostly Cloudy,220,2012-12-11 19:53:00
3:53 PM,79.0,73.0,82,29.96,10.0,South,4.6,-,N/A,,Mostly Cloudy,180,2012-12-11 20:53:00
4:00 PM,78.8,73.4,83,29.96,10.0,South,4.6,-,N/A,,Clear,170,2012-12-11 21:00:00
4:53 PM,78.1,71.1,79,29.95,10.0,SSW,4.6,-,N/A,,Partly Cloudy,210,2012-12-11 21:53:00
5:53 PM,75.0,71.1,87,29.96,10.0,WNW,3.5,-,N/A,,Partly Cloudy,290,2012-12-11 22:53:00
6:53 PM,73.0,71.1,93,29.98,9.0,SE,3.5,-,N/A,,Scattered Clouds,130,2012-12-11 23:53:00
7:53 PM,73.9,72.0,93,30.00,9.0,Calm,Calm,-,N/A,,Mostly Cloudy,0,2012-12-12 00:53:00
8:53 PM,73.0,71.1,93,30.02,8.0,East,3.5,-,N/A,,Scattered Clouds,100,2012-12-12 01:53:00
9:53 PM,73.9,71.1,91,30.03,10.0,SSE,10.4,-,N/A,,Partly Cloudy,160,2012-12-12 02:53:00
10:53 PM,73.0,70.0,90,30.03,10.0,South,4.6,-,N/A,,Overcast,190,2012-12-12 03:53:00
11:53 PM,73.0,69.1,87,30.04,10.0,Calm,Calm,-,N/A,,Clear,0,2012-12-12 04:53:00